Regional Weather Roundup
Issued by NWS Jackson, KY

Home | Current Version | Previous Version | Graphics & Text | Print | Product List | Glossary On
Versions: 1 2 3 4 5 6 7 8 9 10 11 12 13 14 15 16 17 18 19 20 21 22 23 24 25 26 27 28 29 30 31 32 33 34 35 36 37 38 39 40 41 42 43 44 45 46 47 48 49 50
000
ASUS43 KJKL 211811
RWRJKL

EAST KENTUCKY HOURLY WEATHER ROUNDUP
NATIONAL WEATHER SERVICE JACKSON KY
200 PM EDT SUN SEP 21 2014

NOTE: "FAIR" INDICATES FEW OR NO CLOUDS BELOW 12,000 FEET WITH
NO SIGNIFICANT WEATHER AND/OR OBSTRUCTIONS TO VISIBILITY.

* THESE REPORTS ARE NOT UNDER NWS QUALITY CONTROL AND MAY NOT
  REPORT WEATHER SUCH AS PRECIPITATION AND FOG.

KYZ079-080-083-085-087-088-110-112-115-119-120-211900
...EASTERN KENTUCKY...

CITY           SKY/WX    TMP DP  RH WIND       PRES   REMARKS
JACKSON        CLOUDY    71  66  84 VRB5      29.91F
6HR MIN TEMP:  64; 6HR MAX TEMP:  72;

LONDON         CLOUDY    75  66  73 W8        29.94F
6HR MIN TEMP:  68; 6HR MAX TEMP:  76; 6HR PCP: TRACE;

SOMERSET*      CLOUDY    73  64  73 W10       29.94F
MONTICELLO*    PTSUNNY   77  68  73 W12       29.96F
6HR MIN TEMP:  68; 6HR MAX TEMP:  80;

MIDDLESBORO*   PTSUNNY   78  67  69 S5        29.94F
6HR MIN TEMP:  58; 6HR MAX TEMP:  78;

HARLAN APT*    CLOUDY    70  70 100 MISG      29.94F
HAZARD APT*    LGT RAIN  72  68  88 W5        29.91F
BLACK MTN*       N/A     61  61 100 S13         N/A
PIKEVILLE APT* CLOUDY    72  66  83 SW6       29.90F
BIG SANDY*     CLOUDY    74  67  80 SW10G16   29.88F
6HR MIN TEMP:  64; 6HR MAX TEMP:  75;

MOREHEAD APT*  MOCLDY    79  66  65 W12G17    29.88F
$$

KYZ035-036-041-042-044-050-067-078-099-211900
...CENTRAL KENTUCKY...

CITY           SKY/WX    TMP DP  RH WIND       PRES   REMARKS
MT STERLING*   CLOUDY    77  64  65 W12G17    29.89S
FLEMING/MASON* PTSUNNY   76  64  64 W17G24    29.85S
DANVILLE*      PTSUNNY   81  68  65 SW8       29.92S
RICHMOND*      CLOUDY    77  66  69 W6        29.90F
LEXINGTON      MOSUNNY   82  63  52 W20G29    29.88F
6HR MIN TEMP:  69; 6HR MAX TEMP:  82;

FRANKFORT      MOSUNNY   78  63  59 W9G20     29.87S
6HR MIN TEMP:  70; 6HR MAX TEMP:  79;

$$

KYZ091>093-OHZ055-061-077-WVZ005-015-034-035-042-211900
...SOUTHERN OHIO/WEST VIRGINIA...

CITY           SKY/WX    TMP DP  RH WIND       PRES   REMARKS
COVINGTON      MOSUNNY   77  46  33 W16G25    29.86S
COLUMBUS       MOSUNNY   82  34  17 W25G31    29.76F
DAYTON         MOSUNNY   76  44  32 W29G38    29.83F
WILMINGTON     SUNNY     76  43  30 W21G28    29.82S
HUNTINGTON     MOSUNNY   75  67  76 SW9       29.83F
CHARLESTON     CLOUDY    75  67  76 SW13      29.83F
PINEVILLE*     CLOUDY    74  71  89 MISG      29.94F
BECKLEY        CLOUDY    73  63  70 W10G21    29.91F
BLUEFIELD      CLOUDY    71  64  78 W9        29.95F
$$

VAZ002-007-008-TNZ017-027-036-066-071-211900
...SOUTHWEST VIRGINIA/EAST TENNESSEE...

CITY           SKY/WX    TMP DP  RH WIND       PRES   REMARKS
WISE*          CLOUDY    68  66  94 SW13      29.98F
JONESVILLE*    LGT RAIN  72  68  88 CALM      29.98F
ABINGDON*      CLOUDY    74  65  72 W12G20    29.97F
BRISTOL        CLOUDY    78  62  57 W10       29.94F
KNOXVILLE      CLOUDY    80  64  58 SW16      29.96F
OAK RIDGE      LGT RAIN  74  70  87 CALM      29.98F
CROSSVILLE     CLOUDY    78  65  63 W10       30.02F
NASHVILLE      PTSUNNY   84  68  58 W12       29.96F
$$

...KEY TO REMARKS...
VSB - VISIBILITY IN MILES
WCI - WIND CHILL INDEX
HX  - HEAT INDEX

$$


USA.gov is the U.S. government's official web portal to all federal, state and local government web resources and services.